| time (UTC) | temp F | wind direction | speed knots | gust knots | rain 1hr in | rain 24hr in | rain mn in | humidity % | barometer mb |
| 20260504081509 | 49 | 101 | 0.0 | 0.0 | 0.00 | 0.00 | 0.00 | 82 | 1017.0 |
| 20260504050005 | 52 | 101 | 0.0 | 1.7 | 0.00 | 0.00 | 0.00 | 73 | 1017.6 |
| 20260504044519 | 52 | 101 | 0.0 | 0.0 | 0.00 | 0.00 | 0.00 | 76 | 1017.6 |
| 20260504043016 | 52 | 101 | 0.0 | 0.0 | 0.00 | 0.00 | 0.00 | 72 | 1017.6 |
| 20260504041523 | 53 | 101 | 0.0 | 0.0 | 0.00 | 0.00 | 0.00 | 74 | 1017.6 |
| 20260504040008 | 53 | 101 | 0.0 | 1.7 | 0.00 | 0.00 | 0.00 | 69 | 1017.7 |
| 20260504034508 | 54 | 101 | 0.0 | 0.0 | 0.00 | 0.00 | 0.00 | 70 | 1017.6 |
| 20260504033016 | 54 | 101 | 0.0 | 0.0 | 0.00 | 0.00 | 0.00 | 70 | 1017.8 |
| 20260504031520 | 55 | 101 | 0.0 | 0.0 | 0.00 | 0.00 | 0.00 | 68 | 1017.8 |
| 20260504030026 | 55 | 101 | 0.0 | 0.0 | 0.00 | 0.00 | 0.00 | 68 | 1017.8 |
| 20260504024507 | 56 | 101 | 0.0 | 1.7 | 0.00 | 0.00 | 0.00 | 61 | 1017.7 |
| 20260504023016 | 56 | 101 | 0.0 | 1.7 | 0.00 | 0.00 | 0.00 | 60 | 1017.5 |
| 20260504021518 | 57 | 101 | 0.0 | 1.7 | 0.00 | 0.00 | 0.00 | 63 | 1017.5 |
| 20260504020025 | 58 | 101 | 0.0 | 0.9 | 0.00 | 0.00 | 0.00 | 57 | 1017.3 |
| 20260504014536 | 59 | 101 | 0.0 | 1.7 | 0.00 | 0.00 | 0.00 | 52 | 1017.0 |
| 20260504013012 | 60 | 56 | 0.0 | 1.7 | 0.00 | 0.00 | 0.00 | 49 | 1016.8 |
| 20260504011521 | 60 | 82 | 0.0 | 1.7 | 0.00 | 0.00 | 0.00 | 51 | 1016.6 |
| 20260504010020 | 61 | 352 | 0.0 | 3.5 | 0.00 | 0.00 | 0.00 | 50 | 1016.6 |
| 20260504004524 | 61 | 176 | 0.0 | 1.7 | 0.00 | 0.00 | 0.00 | 47 | 1016.6 |
| 20260504003007 | 62 | 57 | 0.0 | 1.7 | 0.00 | 0.00 | 0.00 | 45 | 1016.4 |
| 20260504001513 | 63 | 51 | 0.0 | 1.7 | 0.00 | 0.00 | 0.00 | 42 | 1016.3 |
| 20260504000003 | 64 | 40 | 0.9 | 3.5 | 0.00 | 0.00 | 0.00 | 43 | 1016.1 |
| 20260503234506 | 65 | 303 | 0.9 | 3.5 | 0.00 | 0.00 | 0.00 | 35 | 1016.0 |
| 20260503233004 | 65 | 7 | 0.9 | 6.1 | 0.00 | 0.00 | 0.00 | 34 | 1016.0 |
| 20260503231514 | 67 | 55 | 0.0 | 4.3 | 0.00 | 0.00 | 0.00 | 37 | 1016.0 |
| 20260503230017 | 68 | 1 | 0.0 | 4.3 | 0.00 | 0.00 | 0.00 | 32 | 1016.1 |
| 20260503224504 | 69 | 250 | 0.0 | 5.2 | 0.00 | 0.00 | 0.00 | 36 | 1016.1 |
| 20260503223008 | 69 | 104 | 0.9 | 5.2 | 0.00 | 0.00 | 0.00 | 33 | 1016.1 |
| 20260503221510 | 69 | 32 | 0.9 | 7.0 | 0.00 | 0.00 | 0.00 | 31 | 1016.2 |
| 20260503220018 | 70 | 359 | 1.7 | 5.2 | 0.00 | 0.00 | 0.00 | 32 | 1016.2 |
| 20260503214525 | 70 | 28 | 2.6 | 7.0 | 0.00 | 0.00 | 0.00 | 33 | 1016.2 |
| 20260503213005 | 69 | 146 | 1.7 | 6.1 | 0.00 | 0.00 | 0.00 | 32 | 1016.3 |
| 20260503211508 | 71 | 37 | 1.7 | 4.3 | 0.00 | 0.00 | 0.00 | 32 | 1016.4 |
| 20260503210012 | 71 | 219 | 1.7 | 2.6 | 0.00 | 0.00 | 0.00 | 33 | 1016.4 |
| 20260503204521 | 70 | 308 | 0.9 | 4.3 | 0.00 | 0.00 | 0.00 | 34 | 1016.6 |
| 20260503203022 | 70 | 61 | 0.9 | 7.0 | 0.00 | 0.00 | 0.00 | 36 | 1016.8 |
| 20260503201510 | 70 | 315 | 1.7 | 4.3 | 0.00 | 0.00 | 0.00 | 33 | 1017.1 |
| 20260503200010 | 70 | 33 | 0.9 | 2.6 | 0.00 | 0.00 | 0.00 | 36 | 1017.4 |
| 20260503194518 | 68 | 167 | 0.9 | 3.5 | 0.00 | 0.00 | 0.00 | 37 | 1017.8 |
| 20260503193021 | 69 | 26 | 0.9 | 4.3 | 0.00 | 0.00 | 0.00 | 35 | 1018.0 |
| 20260503191534 | 69 | 135 | 0.9 | 2.6 | 0.00 | 0.00 | 0.00 | 38 | 1018.3 |
| 20260503190007 | 69 | 234 | 0.0 | 3.5 | 0.00 | 0.00 | 0.00 | 37 | 1018.4 |
| 20260503184515 | 68 | 95 | 0.9 | 1.7 | 0.00 | 0.00 | 0.00 | 39 | 1018.6 |
| 20260503183018 | 68 | 105 | 0.9 | 2.6 | 0.00 | 0.00 | 0.00 | 40 | 1018.8 |
| 20260503181524 | 67 | 103 | 0.9 | 4.3 | 0.00 | 0.00 | 0.00 | 41 | 1018.8 |
| 20260503180035 | 67 | 22 | 0.9 | 2.6 | 0.00 | 0.00 | 0.00 | 41 | 1019.1 |
| 20260503174512 | 66 | 319 | 0.9 | 2.6 | 0.00 | 0.00 | 0.00 | 39 | 1019.1 |
| 20260503173017 | 65 | 355 | 1.7 | 2.6 | 0.00 | 0.00 | 0.00 | 41 | 1019.3 |
| 20260503171524 | 64 | 356 | 0.9 | 4.3 | 0.00 | 0.00 | 0.00 | 40 | 1019.4 |